Time,TemperatureF,DewpointF,PressureIn,WindDirection,WindDirectionDegrees,WindSpeedMPH,WindSpeedGustMPH,Humidity,HourlyPrecipIn,Conditions,Clouds,dailyrainin,SoftwareType,DateUTC
2013-07-07 00:01:00,78.8,74.3,30.21,SSE,158,3.5,3.5,86,0.00,FEW,,0.00,WeatherDisplay:10.37,2013-07-07 04:01:00,
2013-07-07 00:06:00,78.8,74.3,30.21,SSE,158,3.5,0.0,86,0.00,FEW,,0.00,WeatherDisplay:10.37,2013-07-07 04:06:00,
2013-07-07 00:11:00,78.8,74.6,30.21,SSE,158,0.0,0.0,87,0.00,FEW,,0.00,WeatherDisplay:10.37,2013-07-07 04:11:00,
2013-07-07 00:16:00,78.8,74.6,30.21,SSE,158,0.0,0.0,87,0.00,FEW,,0.00,WeatherDisplay:10.37,2013-07-07 04:16:00,
2013-07-07 00:21:00,78.8,74.6,30.21,SSE,158,0.0,0.0,87,0.00,FEW,,0.00,WeatherDisplay:10.37,2013-07-07 04:21:00,
2013-07-07 00:26:00,78.8,74.9,30.21,SSE,158,2.9,2.9,88,0.00,FEW,,0.00,WeatherDisplay:10.37,2013-07-07 04:26:00,
2013-07-07 00:31:00,78.8,74.9,30.21,SSE,158,3.5,3.5,88,0.00,FEW,,0.00,WeatherDisplay:10.37,2013-07-07 04:31:00,
2013-07-07 00:36:00,78.8,74.9,30.21,SSE,158,3.8,3.8,88,0.00,FEW,,0.00,WeatherDisplay:10.37,2013-07-07 04:36:00,
2013-07-07 00:41:00,78.8,75.3,30.21,SSE,158,0.0,0.0,89,0.00,FEW,,0.00,WeatherDisplay:10.37,2013-07-07 04:41:00,
2013-07-07 00:46:00,78.8,75.3,30.21,SSE,158,4.6,4.6,89,0.00,FEW,,0.00,WeatherDisplay:10.37,2013-07-07 04:46:00,
2013-07-07 00:51:00,78.8,74.9,30.21,SSE,158,0.0,0.0,88,0.00,FEW,,0.00,WeatherDisplay:10.37,2013-07-07 04:51:00,
2013-07-07 00:56:00,78.8,74.9,30.21,SSE,158,0.0,0.0,88,0.00,FEW,,0.00,WeatherDisplay:10.37,2013-07-07 04:56:00,
2013-07-07 01:01:00,78.6,74.7,30.21,SSE,158,0.0,0.0,88,0.00,FEW,,0.00,WeatherDisplay:10.37,2013-07-07 05:01:00,
2013-07-07 01:06:00,78.6,74.7,30.21,SSE,158,0.0,0.0,88,0.00,FEW,,0.00,WeatherDisplay:10.37,2013-07-07 05:06:00,
2013-07-07 01:11:00,78.6,74.7,30.21,SSE,158,2.9,2.9,88,0.00,FEW,,0.00,WeatherDisplay:10.37,2013-07-07 05:11:00,
2013-07-07 01:16:00,78.6,74.7,30.21,SSE,158,4.6,4.6,88,0.00,FEW,,0.00,WeatherDisplay:10.37,2013-07-07 05:16:00,
2013-07-07 01:21:00,78.6,74.7,30.21,SSE,158,0.0,0.0,88,0.00,SCT,,0.00,WeatherDisplay:10.37,2013-07-07 05:21:00,
2013-07-07 01:26:00,78.6,74.7,30.21,SSE,158,0.0,0.0,88,0.00,SCT,,0.00,WeatherDisplay:10.37,2013-07-07 05:26:00,
2013-07-07 01:31:00,78.6,74.7,30.21,SSE,158,0.0,0.0,88,0.00,SCT,,0.00,WeatherDisplay:10.37,2013-07-07 05:31:00,
2013-07-07 01:36:00,78.6,74.7,30.21,SSE,158,0.0,0.0,88,0.00,SCT,,0.00,WeatherDisplay:10.37,2013-07-07 05:36:00,
2013-07-07 01:41:00,78.6,74.7,30.21,SSE,158,0.0,0.0,88,0.00,SCT,,0.00,WeatherDisplay:10.37,2013-07-07 05:41:00,
2013-07-07 01:46:00,78.6,74.7,30.21,SSE,158,0.0,0.0,88,0.00,SCT,,0.00,WeatherDisplay:10.37,2013-07-07 05:46:00,
2013-07-07 01:51:00,78.6,74.4,30.21,SSE,158,0.0,0.0,87,0.00,SCT,,0.00,WeatherDisplay:10.37,2013-07-07 05:51:00,
2013-07-07 01:56:00,78.6,74.4,30.21,SSE,158,0.0,0.0,87,0.00,SCT,,0.00,WeatherDisplay:10.37,2013-07-07 05:56:00,
2013-07-07 02:01:00,78.6,74.1,30.21,SSE,158,0.0,0.0,86,0.00,SCT,,0.00,WeatherDisplay:10.37,2013-07-07 06:01:00,
2013-07-07 02:06:00,78.6,74.1,30.21,SSE,158,3.8,3.8,86,0.00,SCT,,0.00,WeatherDisplay:10.37,2013-07-07 06:06:00,
2013-07-07 02:11:00,78.6,74.1,30.21,SSE,158,0.0,0.0,86,0.00,SCT,,0.00,WeatherDisplay:10.37,2013-07-07 06:11:00,
2013-07-07 02:16:00,78.6,74.4,30.21,SSE,158,0.0,0.0,87,0.00,SCT,,0.00,WeatherDisplay:10.37,2013-07-07 06:16:00,
2013-07-07 02:21:00,78.6,74.4,30.20,SSE,158,0.0,0.0,87,0.00,BKN,,0.00,WeatherDisplay:10.37,2013-07-07 06:21:00,
2013-07-07 02:26:00,78.3,74.1,30.20,SSE,158,3.5,3.5,87,0.00,BKN,,0.00,WeatherDisplay:10.37,2013-07-07 06:26:00,
2013-07-07 02:31:00,78.3,73.8,30.20,SSE,158,0.0,0.0,86,0.00,SCT,,0.00,WeatherDisplay:10.37,2013-07-07 06:31:00,
2013-07-07 02:36:00,78.3,73.8,30.20,SSE,158,0.0,0.0,86,0.00,SCT,,0.00,WeatherDisplay:10.37,2013-07-07 06:36:00,
2013-07-07 02:41:00,78.3,73.8,30.20,SSE,158,0.0,0.0,86,0.00,SCT,,0.00,WeatherDisplay:10.37,2013-07-07 06:41:00,
2013-07-07 02:46:00,78.1,73.6,30.20,SSE,158,0.0,0.0,86,0.00,SCT,,0.00,WeatherDisplay:10.37,2013-07-07 06:46:00,
2013-07-07 02:51:00,78.1,73.9,30.20,SSE,158,0.0,0.0,87,0.00,SCT,,0.00,WeatherDisplay:10.37,2013-07-07 06:51:00,
2013-07-07 02:56:00,78.1,73.6,30.20,SSE,158,0.0,0.0,86,0.00,SCT,,0.00,WeatherDisplay:10.37,2013-07-07 06:56:00,
2013-07-07 03:01:00,78.1,73.2,30.20,SSE,158,0.0,0.0,85,0.00,SCT,,0.00,WeatherDisplay:10.37,2013-07-07 07:01:00,
2013-07-07 03:06:00,78.1,73.6,30.20,SSE,158,0.0,0.0,86,0.00,SCT,,0.00,WeatherDisplay:10.37,2013-07-07 07:06:00,
2013-07-07 03:11:00,78.1,73.6,30.20,SSE,158,0.0,0.0,86,0.00,SCT,,0.00,WeatherDisplay:10.37,2013-07-07 07:11:00,
2013-07-07 03:16:00,77.9,73.4,30.20,SSE,158,0.0,0.0,86,0.00,SCT,,0.00,WeatherDisplay:10.37,2013-07-07 07:16:00,
2013-07-07 03:21:00,77.9,73.0,30.20,SSE,158,0.0,0.0,85,0.00,FEW,,0.00,WeatherDisplay:10.37,2013-07-07 07:21:00,
2013-07-07 03:26:00,77.9,73.0,30.20,SSE,158,0.0,0.0,85,0.00,FEW,,0.00,WeatherDisplay:10.37,2013-07-07 07:26:00,
2013-07-07 03:32:00,77.9,73.4,30.20,SSE,158,0.0,0.0,86,0.00,FEW,,0.00,WeatherDisplay:10.37,2013-07-07 07:32:00,
2013-07-07 03:37:00,77.9,73.0,30.20,SSE,158,0.0,0.0,85,0.00,FEW,,0.00,WeatherDisplay:10.37,2013-07-07 07:37:00,
2013-07-07 03:42:00,77.9,72.3,30.20,SSE,158,0.0,0.0,83,0.00,FEW,,0.00,WeatherDisplay:10.37,2013-07-07 07:42:00,
2013-07-07 03:47:00,77.9,72.7,30.20,SSE,158,0.0,0.0,84,0.00,FEW,,0.00,WeatherDisplay:10.37,2013-07-07 07:47:00,
2013-07-07 03:52:00,77.9,73.0,30.20,SSE,158,0.0,0.0,85,0.00,FEW,,0.00,WeatherDisplay:10.37,2013-07-07 07:52:00,
2013-07-07 03:57:00,77.7,73.2,30.20,SSE,158,0.0,0.0,86,0.00,FEW,,0.00,WeatherDisplay:10.37,2013-07-07 07:57:00,
2013-07-07 04:02:00,77.5,72.6,30.20,SSE,158,0.0,0.0,85,0.00,FEW,,0.00,WeatherDisplay:10.37,2013-07-07 08:02:00,
2013-07-07 04:07:00,77.5,73.0,30.20,SSE,158,0.0,0.0,86,0.00,FEW,,0.00,WeatherDisplay:10.37,2013-07-07 08:07:00,
2013-07-07 04:12:00,77.5,73.0,30.20,SSE,158,0.0,0.0,86,0.00,FEW,,0.00,WeatherDisplay:10.37,2013-07-07 08:12:00,
2013-07-07 04:17:00,77.5,73.0,30.20,SSE,158,0.0,0.0,86,0.00,FEW,,0.00,WeatherDisplay:10.37,2013-07-07 08:17:00,
2013-07-07 04:22:00,77.4,73.2,30.20,SSE,158,0.0,0.0,87,0.00,SCT,,0.00,WeatherDisplay:10.37,2013-07-07 08:22:00,
2013-07-07 04:27:00,77.4,73.6,30.20,SSE,158,0.0,0.0,88,0.00,SCT,,0.00,WeatherDisplay:10.37,2013-07-07 08:27:00,
2013-07-07 04:32:00,77.4,73.2,30.20,SSE,158,0.0,0.0,87,0.00,SCT,,0.00,WeatherDisplay:10.37,2013-07-07 08:32:00,
2013-07-07 04:37:00,77.4,72.9,30.20,SSE,158,0.0,0.0,86,0.00,SCT,,0.00,WeatherDisplay:10.37,2013-07-07 08:37:00,
2013-07-07 04:42:00,77.4,72.9,30.20,SSE,158,0.0,0.0,86,0.00,SCT,,0.00,WeatherDisplay:10.37,2013-07-07 08:42:00,
2013-07-07 04:47:00,77.4,73.2,30.20,SSE,158,0.0,0.0,87,0.00,SCT,,0.00,WeatherDisplay:10.37,2013-07-07 08:47:00,
2013-07-07 04:52:00,77.4,73.2,30.20,SSE,158,0.0,0.0,87,0.00,SCT,,0.00,WeatherDisplay:10.37,2013-07-07 08:52:00,
2013-07-07 04:57:00,77.4,73.6,30.20,SSE,158,0.0,0.0,88,0.00,SCT,,0.00,WeatherDisplay:10.37,2013-07-07 08:57:00,
2013-07-07 05:02:00,77.4,73.6,30.20,SSE,158,0.0,0.0,88,0.00,SCT,,0.00,WeatherDisplay:10.37,2013-07-07 09:02:00,
2013-07-07 05:07:00,77.4,73.6,30.20,SSE,158,0.0,0.0,88,0.00,SCT,,0.00,WeatherDisplay:10.37,2013-07-07 09:07:00,
2013-07-07 05:12:00,77.4,73.6,30.20,SSE,158,0.0,0.0,88,0.00,SCT,,0.00,WeatherDisplay:10.37,2013-07-07 09:12:00,
2013-07-07 05:17:00,77.4,73.2,30.20,SSE,158,0.0,0.0,87,0.00,SCT,,0.00,WeatherDisplay:10.37,2013-07-07 09:17:00,
2013-07-07 05:22:00,77.4,73.6,30.20,SSE,158,0.0,0.0,88,0.00,CLR,,0.00,WeatherDisplay:10.37,2013-07-07 09:22:00,
2013-07-07 05:27:00,77.2,73.0,30.20,SSE,158,0.0,0.0,87,0.00,CLR,,0.00,WeatherDisplay:10.37,2013-07-07 09:27:00,
2013-07-07 05:32:00,77.2,73.0,30.20,SSE,158,0.0,0.0,87,0.00,CLR,,0.00,WeatherDisplay:10.37,2013-07-07 09:32:00,
2013-07-07 05:37:00,77.2,73.0,30.20,SSE,158,0.0,0.0,87,0.00,CLR,,0.00,WeatherDisplay:10.37,2013-07-07 09:37:00,
2013-07-07 05:42:00,77.2,73.4,30.20,SSE,158,0.0,0.0,88,0.00,CLR,,0.00,WeatherDisplay:10.37,2013-07-07 09:42:00,
2013-07-07 05:47:00,77.2,73.7,30.20,SSE,158,0.0,0.0,89,0.00,CLR,,0.00,WeatherDisplay:10.37,2013-07-07 09:47:00,
2013-07-07 05:52:00,77.2,73.7,30.20,SSE,158,0.0,0.0,89,0.00,CLR,,0.00,WeatherDisplay:10.37,2013-07-07 09:52:00,
2013-07-07 05:57:00,77.2,73.7,30.20,SSE,158,0.0,0.0,89,0.00,CLR,,0.00,WeatherDisplay:10.37,2013-07-07 09:57:00,
2013-07-07 06:02:00,77.2,73.7,30.20,SSE,158,0.0,0.0,89,0.00,CLR,,0.00,WeatherDisplay:10.37,2013-07-07 10:02:00,
2013-07-07 06:07:00,77.2,73.0,30.20,SSE,158,0.0,0.0,87,0.00,CLR,,0.00,WeatherDisplay:10.37,2013-07-07 10:07:00,
2013-07-07 06:12:00,77.2,73.7,30.20,SSE,158,0.0,0.0,89,0.00,CLR,,0.00,WeatherDisplay:10.37,2013-07-07 10:12:00,
2013-07-07 06:17:00,77.2,73.7,30.20,SSE,158,0.0,0.0,89,0.00,CLR,,0.00,WeatherDisplay:10.37,2013-07-07 10:17:00,
2013-07-07 06:22:00,77.0,73.8,30.20,SSE,158,0.0,0.0,90,0.00,SCT,,0.00,WeatherDisplay:10.37,2013-07-07 10:22:00,
2013-07-07 06:27:00,77.0,73.8,30.20,SSE,158,0.0,0.0,90,0.00,SCT,,0.00,WeatherDisplay:10.37,2013-07-07 10:27:00,
2013-07-07 06:32:00,77.0,73.5,30.20,SSE,158,0.0,0.0,89,0.00,SCT,,0.00,WeatherDisplay:10.37,2013-07-07 10:32:00,
2013-07-07 06:37:00,77.0,73.5,30.20,SSE,158,0.0,0.0,89,0.00,SCT,,0.00,WeatherDisplay:10.37,2013-07-07 10:37:00,
2013-07-07 06:42:00,77.0,73.8,30.20,SSE,158,0.0,0.0,90,0.00,SCT,,0.00,WeatherDisplay:10.37,2013-07-07 10:42:00,
2013-07-07 06:47:00,77.2,74.0,30.20,SSE,158,0.0,0.0,90,0.00,SCT,,0.00,WeatherDisplay:10.37,2013-07-07 10:47:00,
2013-07-07 06:52:00,77.2,74.0,30.20,SSE,158,0.0,0.0,90,0.00,SCT,,0.00,WeatherDisplay:10.37,2013-07-07 10:52:00,
2013-07-07 06:57:00,77.4,74.6,30.20,SSE,158,0.0,0.0,91,0.00,SCT,,0.00,WeatherDisplay:10.37,2013-07-07 10:57:00,
2013-07-07 07:02:00,77.4,74.2,30.20,SSE,158,0.0,0.0,90,0.00,SCT,,0.00,WeatherDisplay:10.37,2013-07-07 11:02:00,
2013-07-07 07:07:00,77.5,74.3,30.20,SSE,158,0.0,0.0,90,0.00,SCT,,0.00,WeatherDisplay:10.37,2013-07-07 11:07:00,
2013-07-07 07:12:00,77.5,74.3,30.20,SSE,158,0.0,0.0,90,0.00,SCT,,0.00,WeatherDisplay:10.37,2013-07-07 11:12:00,
2013-07-07 07:17:00,77.7,74.2,30.20,SSE,158,0.0,0.0,89,0.00,SCT,,0.00,WeatherDisplay:10.37,2013-07-07 11:17:00,
2013-07-07 07:22:00,77.7,74.2,30.21,SSE,158,0.0,0.0,89,0.00,FEW,,0.00,WeatherDisplay:10.37,2013-07-07 11:22:00,
2013-07-07 07:27:00,77.7,73.9,30.21,SSE,158,0.0,0.0,88,0.00,FEW,,0.00,WeatherDisplay:10.37,2013-07-07 11:27:00,
2013-07-07 07:32:00,77.9,74.7,30.21,SSE,158,0.0,0.0,90,0.00,FEW,,0.00,WeatherDisplay:10.37,2013-07-07 11:32:00,
2013-07-07 07:37:00,78.1,74.6,30.21,SSE,158,0.0,0.0,89,0.00,FEW,,0.00,WeatherDisplay:10.37,2013-07-07 11:37:00,
2013-07-07 07:42:00,78.1,74.6,30.21,SSE,158,0.0,0.0,89,0.00,FEW,,0.00,WeatherDisplay:10.37,2013-07-07 11:42:00,
2013-07-07 07:47:00,78.6,75.4,30.21,SSE,158,0.0,0.0,90,0.00,FEW,,0.00,WeatherDisplay:10.37,2013-07-07 11:47:00,
2013-07-07 07:52:00,78.8,74.9,30.21,SSE,158,0.0,0.0,88,0.00,FEW,,0.00,WeatherDisplay:10.37,2013-07-07 11:52:00,
2013-07-07 07:57:00,78.8,74.9,30.21,SSE,158,0.0,0.0,88,0.00,FEW,,0.00,WeatherDisplay:10.37,2013-07-07 11:57:00,
2013-07-07 08:02:00,78.8,75.3,30.21,SSE,158,0.0,0.0,89,0.00,FEW,,0.00,WeatherDisplay:10.37,2013-07-07 12:02:00,
2013-07-07 08:07:00,79.2,75.0,30.21,SSE,158,0.0,0.0,87,0.00,FEW,,0.00,WeatherDisplay:10.37,2013-07-07 12:07:00,
2013-07-07 08:12:00,79.3,74.7,30.22,SSE,158,4.6,4.6,86,0.00,FEW,,0.00,WeatherDisplay:10.37,2013-07-07 12:12:00,
2013-07-07 08:17:00,79.7,74.8,30.22,SSE,158,3.5,3.5,85,0.00,FEW,,0.00,WeatherDisplay:10.37,2013-07-07 12:17:00,
2013-07-07 08:22:00,79.7,74.8,30.22,SSE,158,0.0,0.0,85,0.00,FEW,,0.00,WeatherDisplay:10.37,2013-07-07 12:22:00,
2013-07-07 08:27:00,79.7,74.8,30.22,SSE,158,3.5,3.5,85,0.00,FEW,,0.00,WeatherDisplay:10.37,2013-07-07 12:27:00,
2013-07-07 08:32:00,79.7,74.8,30.22,SSE,158,3.8,3.8,85,0.00,FEW,,0.00,WeatherDisplay:10.37,2013-07-07 12:32:00,
2013-07-07 08:37:00,79.9,74.6,30.22,SSE,158,4.7,4.7,84,0.00,FEW,,0.00,WeatherDisplay:10.37,2013-07-07 12:37:00,
2013-07-07 08:42:00,80.1,74.5,30.22,SSE,158,4.6,4.6,83,0.00,FEW,,0.00,WeatherDisplay:10.37,2013-07-07 12:42:00,
2013-07-07 08:47:00,80.1,74.5,30.22,SSE,158,4.6,4.6,83,0.00,FEW,,0.00,WeatherDisplay:10.37,2013-07-07 12:47:00,
2013-07-07 08:52:00,80.2,75.6,30.22,South,180,4.6,4.6,86,0.00,FEW,,0.00,WeatherDisplay:10.37,2013-07-07 12:52:00,
2013-07-07 08:57:00,80.1,74.5,30.22,South,180,5.8,5.8,83,0.00,FEW,,0.00,WeatherDisplay:10.37,2013-07-07 12:57:00,
2013-07-07 09:02:00,79.9,74.6,30.22,South,180,3.8,3.8,84,0.00,FEW,,0.00,WeatherDisplay:10.37,2013-07-07 13:02:00,
2013-07-07 09:07:00,80.1,74.8,30.22,South,180,3.5,3.5,84,0.00,FEW,,0.00,WeatherDisplay:10.37,2013-07-07 13:07:00,
2013-07-07 09:13:00,81.0,74.6,30.22,South,180,5.8,5.8,81,0.00,FEW,,0.00,WeatherDisplay:10.37,2013-07-07 13:13:00,
2013-07-07 09:18:00,81.1,74.3,30.22,South,180,4.6,4.6,80,0.00,FEW,,0.00,WeatherDisplay:10.37,2013-07-07 13:18:00,
2013-07-07 09:23:00,81.3,74.5,30.22,SSE,158,5.8,5.8,80,0.00,FEW,,0.00,WeatherDisplay:10.37,2013-07-07 13:23:00,
2013-07-07 09:28:00,81.3,74.9,30.22,South,180,2.0,2.3,81,0.00,FEW,,0.00,WeatherDisplay:10.37,2013-07-07 13:28:00,
2013-07-07 09:33:00,81.9,75.9,30.22,SSE,158,4.7,4.9,82,0.00,FEW,,0.00,WeatherDisplay:10.37,2013-07-07 13:33:00,
2013-07-07 09:38:00,81.3,74.5,30.22,SSE,158,5.8,5.8,80,0.00,FEW,,0.00,WeatherDisplay:10.37,2013-07-07 13:38:00,
2013-07-07 09:43:00,81.3,74.5,30.22,SSE,158,4.6,4.6,80,0.00,FEW,,0.00,WeatherDisplay:10.37,2013-07-07 13:43:00,
2013-07-07 09:48:00,82.0,74.8,30.22,SSE,158,4.6,4.6,79,0.00,FEW,,0.00,WeatherDisplay:10.37,2013-07-07 13:48:00,
2013-07-07 09:53:00,82.2,75.0,30.22,South,180,6.9,6.9,79,0.00,FEW,,0.00,WeatherDisplay:10.37,2013-07-07 13:53:00,
2013-07-07 09:58:00,81.5,75.1,30.22,South,180,6.9,6.9,81,0.00,FEW,,0.00,WeatherDisplay:10.37,2013-07-07 13:58:00,
2013-07-07 10:03:00,81.0,74.6,30.22,South,180,3.5,3.5,81,0.00,FEW,,0.00,WeatherDisplay:10.37,2013-07-07 14:03:00,
2013-07-07 10:08:00,81.3,75.3,30.22,South,180,6.5,6.5,82,0.00,FEW,,0.00,WeatherDisplay:10.37,2013-07-07 14:08:00,
2013-07-07 10:13:00,81.3,74.5,30.22,South,180,4.7,4.7,80,0.00,FEW,,0.00,WeatherDisplay:10.37,2013-07-07 14:13:00,
2013-07-07 10:18:00,81.3,74.5,30.22,South,180,5.8,5.8,80,0.00,FEW,,0.00,WeatherDisplay:10.37,2013-07-07 14:18:00,
2013-07-07 10:23:00,82.0,74.8,30.22,South,180,4.7,4.7,79,0.00,SCT,,0.00,WeatherDisplay:10.37,2013-07-07 14:23:00,
2013-07-07 10:28:00,82.0,74.8,30.22,South,180,5.8,5.8,79,0.00,SCT,,0.00,WeatherDisplay:10.37,2013-07-07 14:28:00,
2013-07-07 10:33:00,82.2,75.4,30.22,SSE,158,3.8,3.8,80,0.00,SCT,,0.00,WeatherDisplay:10.37,2013-07-07 14:33:00,
2013-07-07 10:38:00,82.0,75.6,30.22,SSE,158,4.6,4.6,81,0.00,SCT,,0.00,WeatherDisplay:10.37,2013-07-07 14:38:00,
2013-07-07 10:43:00,81.3,74.9,30.22,SSE,158,4.6,4.6,81,0.00,SCT,,0.00,WeatherDisplay:10.37,2013-07-07 14:43:00,
2013-07-07 10:48:00,82.2,75.0,30.22,SSE,158,4.6,4.6,79,0.00,SCT,,0.00,WeatherDisplay:10.37,2013-07-07 14:48:00,
2013-07-07 10:53:00,82.4,74.5,30.22,SE,135,4.7,4.7,77,0.00,SCT,,0.00,WeatherDisplay:10.37,2013-07-07 14:53:00,
2013-07-07 10:58:00,83.1,75.9,30.22,SSE,158,4.7,4.7,79,0.00,SCT,,0.00,WeatherDisplay:10.37,2013-07-07 14:58:00,
2013-07-07 11:03:00,82.9,74.9,30.22,SSE,158,5.8,5.8,77,0.00,SCT,,0.00,WeatherDisplay:10.37,2013-07-07 15:03:00,
2013-07-07 11:08:00,82.6,74.7,30.22,SSE,158,4.6,4.6,77,0.00,SCT,,0.00,WeatherDisplay:10.37,2013-07-07 15:08:00,
2013-07-07 11:13:00,83.1,75.5,30.22,SSE,158,4.6,4.6,78,0.00,SCT,,0.00,WeatherDisplay:10.37,2013-07-07 15:13:00,
2013-07-07 11:18:00,83.3,74.5,30.22,SSE,158,6.9,6.9,75,0.00,SCT,,0.00,WeatherDisplay:10.37,2013-07-07 15:18:00,
2013-07-07 11:23:00,82.9,74.9,30.22,South,180,4.7,4.7,77,0.00,FEW,,0.00,WeatherDisplay:10.37,2013-07-07 15:23:00,
2013-07-07 11:28:00,83.1,75.5,30.22,South,180,5.8,5.8,78,0.00,FEW,,0.00,WeatherDisplay:10.37,2013-07-07 15:28:00,
2013-07-07 11:33:00,82.9,74.6,30.22,South,180,6.9,6.9,76,0.00,FEW,,0.00,WeatherDisplay:10.37,2013-07-07 15:33:00,
2013-07-07 11:38:00,83.1,75.5,30.22,SSE,158,4.7,4.7,78,0.00,FEW,,0.00,WeatherDisplay:10.37,2013-07-07 15:38:00,
2013-07-07 11:43:00,82.9,75.7,30.22,South,180,6.9,6.9,79,0.00,FEW,,0.00,WeatherDisplay:10.37,2013-07-07 15:43:00,
2013-07-07 11:48:00,82.9,74.6,30.22,SSE,158,6.9,6.9,76,0.00,FEW,,0.00,WeatherDisplay:10.37,2013-07-07 15:48:00,
2013-07-07 11:53:00,82.9,74.9,30.22,SSE,158,4.7,4.7,77,0.00,FEW,,0.00,WeatherDisplay:10.37,2013-07-07 15:53:00,
2013-07-07 11:58:00,82.9,74.2,30.22,South,180,4.7,4.7,75,0.00,FEW,,0.00,WeatherDisplay:10.37,2013-07-07 15:58:00,
2013-07-07 12:03:00,82.9,74.2,30.22,South,180,6.9,6.9,75,0.00,FEW,,0.00,WeatherDisplay:10.37,2013-07-07 16:03:00,
2013-07-07 12:08:00,83.1,75.1,30.22,South,180,5.8,5.8,77,0.00,FEW,,0.00,WeatherDisplay:10.37,2013-07-07 16:08:00,
2013-07-07 12:13:00,83.1,74.4,30.22,South,180,6.9,6.9,75,0.00,FEW,,0.00,WeatherDisplay:10.37,2013-07-07 16:13:00,
2013-07-07 12:18:00,82.9,74.6,30.22,SSE,158,4.6,4.6,76,0.00,FEW,,0.00,WeatherDisplay:10.37,2013-07-07 16:18:00,
2013-07-07 12:23:00,82.9,74.2,30.21,South,180,8.1,8.1,75,0.00,SCT,,0.00,WeatherDisplay:10.37,2013-07-07 16:23:00,
2013-07-07 12:28:00,82.8,74.1,30.21,SSE,158,6.9,6.9,75,0.00,SCT,,0.00,WeatherDisplay:10.37,2013-07-07 16:28:00,
2013-07-07 12:33:00,82.9,73.8,30.21,SSE,158,6.9,6.9,74,0.00,SCT,,0.00,WeatherDisplay:10.37,2013-07-07 16:33:00,
2013-07-07 12:38:00,83.1,73.9,30.21,SSE,158,6.9,6.9,74,0.00,SCT,,0.00,WeatherDisplay:10.37,2013-07-07 16:38:00,
2013-07-07 12:43:00,83.3,74.5,30.21,South,180,6.9,6.9,75,0.00,SCT,,0.00,WeatherDisplay:10.37,2013-07-07 16:43:00,
2013-07-07 12:48:00,83.3,74.5,30.21,SSE,158,4.6,4.6,75,0.00,SCT,,0.00,WeatherDisplay:10.37,2013-07-07 16:48:00,
2013-07-07 12:53:00,83.3,74.1,30.21,South,180,5.8,5.8,74,0.00,SCT,,0.00,WeatherDisplay:10.37,2013-07-07 16:53:00,
2013-07-07 12:58:00,83.3,74.5,30.21,South,180,6.9,6.9,75,0.00,SCT,,0.00,WeatherDisplay:10.37,2013-07-07 16:58:00,
2013-07-07 13:03:00,83.1,74.7,30.21,SSE,158,6.9,6.9,76,0.00,SCT,,0.00,WeatherDisplay:10.37,2013-07-07 17:03:00,
2013-07-07 13:08:00,83.1,74.7,30.21,SSE,158,4.7,4.7,76,0.00,SCT,,0.00,WeatherDisplay:10.37,2013-07-07 17:08:00,
2013-07-07 13:13:00,83.3,74.9,30.20,South,180,7.4,7.4,76,0.00,FEW,,0.00,WeatherDisplay:10.37,2013-07-07 17:13:00,
2013-07-07 13:18:00,83.1,74.4,30.20,SSE,158,5.8,5.8,75,0.00,FEW,,0.00,WeatherDisplay:10.37,2013-07-07 17:18:00,
2013-07-07 13:23:00,82.9,74.6,30.20,South,180,6.9,6.9,76,0.00,FEW,,0.00,WeatherDisplay:10.37,2013-07-07 17:23:00,
2013-07-07 13:28:00,82.9,73.8,30.20,SSE,158,6.9,6.9,74,0.00,FEW,,0.00,WeatherDisplay:10.37,2013-07-07 17:28:00,
2013-07-07 13:34:00,83.1,75.1,30.20,South,180,5.8,5.8,77,0.00,FEW,,0.00,WeatherDisplay:10.37,2013-07-07 17:34:00,
2013-07-07 13:39:00,82.9,75.3,30.20,SSE,158,6.9,6.9,78,0.00,FEW,,0.00,WeatherDisplay:10.37,2013-07-07 17:39:00,
2013-07-07 13:44:00,82.9,74.2,30.20,South,180,6.9,6.9,75,0.00,FEW,,0.00,WeatherDisplay:10.37,2013-07-07 17:44:00,
2013-07-07 13:49:00,82.9,74.2,30.20,South,180,4.7,4.7,75,0.00,FEW,,0.00,WeatherDisplay:10.37,2013-07-07 17:49:00,
2013-07-07 13:54:00,82.9,74.6,30.20,West,270,3.5,3.5,76,0.00,FEW,,0.00,WeatherDisplay:10.37,2013-07-07 17:54:00,
2013-07-07 13:59:00,82.8,74.1,30.20,South,180,4.6,4.6,75,0.00,FEW,,0.00,WeatherDisplay:10.37,2013-07-07 17:59:00,
2013-07-07 14:04:00,82.8,75.2,30.20,South,180,4.6,4.6,78,0.00,FEW,,0.00,WeatherDisplay:10.37,2013-07-07 18:04:00,
2013-07-07 14:09:00,82.8,74.1,30.20,South,180,6.9,6.9,75,0.00,FEW,,0.00,WeatherDisplay:10.37,2013-07-07 18:09:00,
2013-07-07 14:14:00,82.8,74.5,30.19,SSE,158,6.9,6.9,76,0.00,FEW,,0.00,WeatherDisplay:10.37,2013-07-07 18:14:00,
2013-07-07 14:19:00,82.6,74.7,30.19,South,180,3.8,3.8,77,0.00,FEW,,0.00,WeatherDisplay:10.37,2013-07-07 18:19:00,
2013-07-07 14:24:00,82.8,75.2,30.19,South,180,5.8,5.8,78,0.00,FEW,,0.00,WeatherDisplay:10.37,2013-07-07 18:24:00,
2013-07-07 14:29:00,82.8,74.8,30.19,West,270,6.9,6.9,77,0.00,FEW,,0.00,WeatherDisplay:10.37,2013-07-07 18:29:00,
2013-07-07 14:34:00,82.8,74.5,30.19,South,180,7.4,7.4,76,0.00,FEW,,0.00,WeatherDisplay:10.37,2013-07-07 18:34:00,
2013-07-07 14:39:00,82.4,74.1,30.19,South,180,6.9,6.9,76,0.00,FEW,,0.00,WeatherDisplay:10.37,2013-07-07 18:39:00,
2013-07-07 14:44:00,82.4,74.8,30.19,South,180,7.4,7.4,78,0.00,FEW,,0.00,WeatherDisplay:10.37,2013-07-07 18:44:00,
2013-07-07 14:49:00,82.4,74.8,30.19,SSE,158,4.6,4.6,78,0.00,FEW,,0.00,WeatherDisplay:10.37,2013-07-07 18:49:00,
2013-07-07 14:54:00,82.6,75.0,30.19,NW,315,4.6,4.6,78,0.00,FEW,,0.00,WeatherDisplay:10.37,2013-07-07 18:54:00,
2013-07-07 14:59:00,82.2,74.3,30.19,SSE,158,6.9,6.9,77,0.00,FEW,,0.00,WeatherDisplay:10.37,2013-07-07 18:59:00,
2013-07-07 15:04:00,82.4,74.5,30.19,South,180,8.1,8.1,77,0.00,FEW,,0.00,WeatherDisplay:10.37,2013-07-07 19:04:00,
2013-07-07 15:09:00,82.2,74.3,30.19,South,180,5.8,5.8,77,0.00,FEW,,0.00,WeatherDisplay:10.37,2013-07-07 19:09:00,
2013-07-07 15:14:00,82.2,74.7,30.19,South,180,6.9,6.9,78,0.00,FEW,,0.00,WeatherDisplay:10.37,2013-07-07 19:14:00,
2013-07-07 15:19:00,82.0,74.1,30.19,South,180,8.1,8.1,77,0.00,FEW,,0.00,WeatherDisplay:10.37,2013-07-07 19:19:00,
2013-07-07 15:24:00,82.0,74.5,30.18,South,180,6.9,6.9,78,0.00,FEW,,0.00,WeatherDisplay:10.37,2013-07-07 19:24:00,
2013-07-07 15:29:00,82.0,74.5,30.18,South,180,5.8,5.8,78,0.00,FEW,,0.00,WeatherDisplay:10.37,2013-07-07 19:29:00,
2013-07-07 15:34:00,82.4,74.5,30.18,South,180,7.4,7.4,77,0.00,FEW,,0.00,WeatherDisplay:10.37,2013-07-07 19:34:00,
2013-07-07 15:39:00,82.2,73.9,30.18,South,180,6.5,6.5,76,0.00,FEW,,0.00,WeatherDisplay:10.37,2013-07-07 19:39:00,
2013-07-07 15:44:00,82.2,74.7,30.18,SSE,158,6.9,6.9,78,0.00,FEW,,0.00,WeatherDisplay:10.37,2013-07-07 19:44:00,
2013-07-07 15:49:00,82.2,74.3,30.18,South,180,5.8,5.8,77,0.00,FEW,,0.00,WeatherDisplay:10.37,2013-07-07 19:49:00,
2013-07-07 15:54:00,82.2,74.3,30.18,South,180,6.9,6.9,77,0.00,FEW,,0.00,WeatherDisplay:10.37,2013-07-07 19:54:00,
2013-07-07 15:59:00,82.2,74.3,30.18,South,180,6.9,6.9,77,0.00,FEW,,0.00,WeatherDisplay:10.37,2013-07-07 19:59:00,
2013-07-07 16:04:00,82.0,74.5,30.18,South,180,7.4,7.4,78,0.00,FEW,,0.00,WeatherDisplay:10.37,2013-07-07 20:04:00,
2013-07-07 16:09:00,82.2,75.0,30.18,SW,225,4.6,4.6,79,0.00,FEW,,0.00,WeatherDisplay:10.37,2013-07-07 20:09:00,
2013-07-07 16:14:00,82.2,75.0,30.18,SSE,158,6.9,6.9,79,0.00,FEW,,0.00,WeatherDisplay:10.37,2013-07-07 20:14:00,
2013-07-07 16:19:00,82.2,75.0,30.18,SSE,158,6.9,6.9,79,0.00,FEW,,0.00,WeatherDisplay:10.37,2013-07-07 20:19:00,
2013-07-07 16:24:00,82.2,74.3,30.16,South,180,6.9,6.9,77,0.00,CLR,,0.00,WeatherDisplay:10.37,2013-07-07 20:24:00,
2013-07-07 16:29:00,82.0,74.5,30.16,South,180,6.9,6.9,78,0.00,CLR,,0.00,WeatherDisplay:10.37,2013-07-07 20:29:00,
2013-07-07 16:34:00,81.9,74.4,30.16,South,180,6.9,6.9,78,0.00,CLR,,0.00,WeatherDisplay:10.37,2013-07-07 20:34:00,
2013-07-07 16:39:00,82.0,74.8,30.16,SSW,202,6.9,6.9,79,0.00,CLR,,0.00,WeatherDisplay:10.37,2013-07-07 20:39:00,
2013-07-07 16:44:00,82.0,74.5,30.16,East,90,0.0,0.0,78,0.00,CLR,,0.00,WeatherDisplay:10.37,2013-07-07 20:44:00,
2013-07-07 16:49:00,82.0,74.8,30.16,South,180,6.9,6.9,79,0.00,CLR,,0.00,WeatherDisplay:10.37,2013-07-07 20:49:00,
2013-07-07 16:54:00,82.0,74.8,30.16,South,180,5.8,5.8,79,0.00,CLR,,0.00,WeatherDisplay:10.37,2013-07-07 20:54:00,
2013-07-07 16:59:00,82.0,75.2,30.16,South,180,6.5,6.5,80,0.00,CLR,,0.00,WeatherDisplay:10.37,2013-07-07 20:59:00,
2013-07-07 17:04:00,81.7,74.2,30.16,South,180,6.9,6.9,78,0.00,CLR,,0.00,WeatherDisplay:10.37,2013-07-07 21:04:00,
2013-07-07 17:09:00,81.7,75.7,30.16,West,270,6.9,6.9,82,0.00,CLR,,0.00,WeatherDisplay:10.37,2013-07-07 21:09:00,
2013-07-07 17:14:00,81.9,75.5,30.14,SSE,158,7.4,7.4,81,0.00,CLR,,0.00,WeatherDisplay:10.37,2013-07-07 21:14:00,
2013-07-07 17:19:00,81.7,74.9,30.14,South,180,6.9,6.9,80,0.00,CLR,,0.00,WeatherDisplay:10.37,2013-07-07 21:19:00,
2013-07-07 17:24:00,81.5,74.0,30.14,South,180,7.4,7.4,78,0.00,CLR,,0.00,WeatherDisplay:10.37,2013-07-07 21:24:00,
2013-07-07 17:29:00,81.5,74.7,30.14,South,180,6.9,6.9,80,0.00,CLR,,0.00,WeatherDisplay:10.37,2013-07-07 21:29:00,
2013-07-07 17:35:00,81.3,74.5,30.14,South,180,4.7,4.7,80,0.00,CLR,,0.00,WeatherDisplay:10.37,2013-07-07 21:35:00,
2013-07-07 17:40:00,81.3,75.3,30.14,South,180,0.0,0.0,82,0.00,CLR,,0.00,WeatherDisplay:10.37,2013-07-07 21:40:00,
2013-07-07 17:45:00,81.3,74.5,30.14,South,180,6.5,6.5,80,0.00,CLR,,0.00,WeatherDisplay:10.37,2013-07-07 21:45:00,
2013-07-07 17:50:00,81.3,74.2,30.14,South,180,6.9,6.9,79,0.00,CLR,,0.00,WeatherDisplay:10.37,2013-07-07 21:50:00,
2013-07-07 17:55:00,81.1,74.3,30.14,South,180,5.6,5.6,80,0.00,CLR,,0.00,WeatherDisplay:10.37,2013-07-07 21:55:00,
2013-07-07 18:00:00,81.1,74.3,30.14,South,180,6.9,6.9,80,0.00,CLR,,0.00,WeatherDisplay:10.37,2013-07-07 22:00:00,
2013-07-07 18:05:00,81.1,74.3,30.14,South,180,5.8,5.8,80,0.00,CLR,,0.00,WeatherDisplay:10.37,2013-07-07 22:05:00,
2013-07-07 18:10:00,81.1,75.1,30.14,South,180,6.9,6.9,82,0.00,CLR,,0.00,WeatherDisplay:10.37,2013-07-07 22:10:00,
2013-07-07 18:15:00,81.1,74.7,30.13,South,180,5.8,5.8,81,0.00,CLR,,0.00,WeatherDisplay:10.37,2013-07-07 22:15:00,
2013-07-07 18:20:00,81.0,74.2,30.13,South,180,4.7,4.7,80,0.00,CLR,,0.00,WeatherDisplay:10.37,2013-07-07 22:20:00,
2013-07-07 18:25:00,81.0,74.2,30.13,South,180,4.6,4.6,80,0.00,CLR,,0.00,WeatherDisplay:10.37,2013-07-07 22:25:00,
2013-07-07 18:30:00,81.0,73.9,30.13,South,180,7.4,7.4,79,0.00,CLR,,0.00,WeatherDisplay:10.37,2013-07-07 22:30:00,
2013-07-07 18:35:00,81.0,74.6,30.13,South,180,6.9,6.9,81,0.00,CLR,,0.00,WeatherDisplay:10.37,2013-07-07 22:35:00,
2013-07-07 18:40:00,80.6,74.6,30.13,South,180,3.5,3.5,82,0.00,CLR,,0.00,WeatherDisplay:10.37,2013-07-07 22:40:00,
2013-07-07 18:45:00,80.6,74.2,30.13,SSE,158,6.9,6.9,81,0.00,CLR,,0.00,WeatherDisplay:10.37,2013-07-07 22:45:00,
2013-07-07 18:50:00,80.6,74.2,30.13,South,180,5.8,5.8,81,0.00,CLR,,0.00,WeatherDisplay:10.37,2013-07-07 22:50:00,
2013-07-07 18:55:00,80.6,74.6,30.13,South,180,0.0,0.0,82,0.00,CLR,,0.00,WeatherDisplay:10.37,2013-07-07 22:55:00,
2013-07-07 19:00:00,80.6,74.6,30.13,South,180,4.6,4.6,82,0.00,CLR,,0.00,WeatherDisplay:10.37,2013-07-07 23:00:00,
2013-07-07 19:05:00,80.4,74.4,30.13,SSE,158,5.8,5.8,82,0.00,CLR,,0.00,WeatherDisplay:10.37,2013-07-07 23:05:00,
2013-07-07 19:10:00,80.4,74.4,30.13,South,180,5.6,5.6,82,0.00,CLR,,0.00,WeatherDisplay:10.37,2013-07-07 23:10:00,
2013-07-07 19:15:00,80.4,74.0,30.12,South,180,4.6,4.6,81,0.00,CLR,,0.00,WeatherDisplay:10.37,2013-07-07 23:15:00,
2013-07-07 19:20:00,80.4,74.8,30.12,South,180,5.6,5.6,83,0.00,CLR,,0.00,WeatherDisplay:10.37,2013-07-07 23:20:00,
2013-07-07 19:25:00,80.2,74.2,30.12,South,180,3.5,0.0,82,0.00,CLR,,0.00,WeatherDisplay:10.37,2013-07-07 23:25:00,
2013-07-07 19:30:00,80.2,74.6,30.12,South,180,4.7,4.7,83,0.00,CLR,,0.00,WeatherDisplay:10.37,2013-07-07 23:30:00,
2013-07-07 19:35:00,80.1,74.8,30.12,South,180,5.6,5.6,84,0.00,CLR,,0.00,WeatherDisplay:10.37,2013-07-07 23:35:00,
2013-07-07 19:40:00,80.1,74.5,30.12,South,180,4.6,4.6,83,0.00,CLR,,0.00,WeatherDisplay:10.37,2013-07-07 23:40:00,
2013-07-07 19:45:00,79.9,74.6,30.12,South,180,3.5,3.5,84,0.00,CLR,,0.00,WeatherDisplay:10.37,2013-07-07 23:45:00,
2013-07-07 19:50:00,79.9,74.6,30.12,South,180,6.9,6.9,84,0.00,CLR,,0.00,WeatherDisplay:10.37,2013-07-07 23:50:00,
2013-07-07 19:55:00,79.9,74.3,30.12,SSE,158,6.9,6.9,83,0.00,CLR,,0.00,WeatherDisplay:10.37,2013-07-07 23:55:00,
2013-07-07 20:00:00,79.5,73.9,30.12,South,180,4.6,4.6,83,0.00,CLR,,0.00,WeatherDisplay:10.37,2013-07-08 00:00:00,
2013-07-07 20:05:00,79.5,74.2,30.12,South,180,3.8,3.8,84,0.00,CLR,,0.00,WeatherDisplay:10.37,2013-07-08 00:05:00,
2013-07-07 20:10:00,79.5,74.6,30.12,South,180,4.6,4.6,85,0.00,CLR,,0.00,WeatherDisplay:10.37,2013-07-08 00:10:00,
2013-07-07 20:15:00,79.3,74.4,30.12,South,180,4.7,4.7,85,0.00,CLR,,0.00,WeatherDisplay:10.37,2013-07-08 00:15:00,
2013-07-07 20:20:00,79.3,74.7,30.12,South,180,5.8,5.8,86,0.00,CLR,,0.00,WeatherDisplay:10.37,2013-07-08 00:20:00,
2013-07-07 20:25:00,79.3,74.7,30.13,South,180,3.5,3.5,86,0.00,CLR,,0.00,WeatherDisplay:10.37,2013-07-08 00:25:00,
2013-07-07 20:30:00,79.0,73.7,30.13,South,180,4.6,4.6,84,0.00,CLR,,0.00,WeatherDisplay:10.37,2013-07-08 00:30:00,
2013-07-07 20:35:00,79.0,73.7,30.13,South,180,3.5,3.5,84,0.00,CLR,,0.00,WeatherDisplay:10.37,2013-07-08 00:35:00,
2013-07-07 20:40:00,79.0,74.1,30.13,South,180,4.6,4.6,85,0.00,CLR,,0.00,WeatherDisplay:10.37,2013-07-08 00:40:00,
2013-07-07 20:45:00,79.0,74.1,30.13,South,180,4.7,4.7,85,0.00,CLR,,0.00,WeatherDisplay:10.37,2013-07-08 00:45:00,
2013-07-07 20:50:00,79.0,74.5,30.13,South,180,3.5,3.5,86,0.00,CLR,,0.00,WeatherDisplay:10.37,2013-07-08 00:50:00,
2013-07-07 20:55:00,78.8,74.3,30.13,South,180,3.5,3.5,86,0.00,CLR,,0.00,WeatherDisplay:10.37,2013-07-08 00:55:00,
2013-07-07 21:00:00,78.8,74.3,30.13,South,180,4.7,4.7,86,0.00,CLR,,0.00,WeatherDisplay:10.37,2013-07-08 01:00:00,
2013-07-07 21:05:00,78.8,74.3,30.13,South,180,4.7,4.7,86,0.00,CLR,,0.00,WeatherDisplay:10.37,2013-07-08 01:05:00,
2013-07-07 21:10:00,78.8,74.3,30.13,South,180,4.6,4.6,86,0.00,CLR,,0.00,WeatherDisplay:10.37,2013-07-08 01:10:00,
2013-07-07 21:15:00,78.8,74.3,30.13,South,180,4.6,4.6,86,0.00,CLR,,0.00,WeatherDisplay:10.37,2013-07-08 01:15:00,
2013-07-07 21:20:00,78.8,74.3,30.13,South,180,3.8,3.8,86,0.00,CLR,,0.00,WeatherDisplay:10.37,2013-07-08 01:20:00,
2013-07-07 21:25:00,78.8,74.3,30.14,South,180,4.6,4.6,86,0.00,CLR,,0.00,WeatherDisplay:10.37,2013-07-08 01:25:00,
2013-07-07 21:31:00,78.8,74.3,30.14,South,180,4.6,4.6,86,0.00,CLR,,0.00,WeatherDisplay:10.37,2013-07-08 01:31:00,
2013-07-07 21:36:00,78.8,74.3,30.14,South,180,6.9,6.9,86,0.00,CLR,,0.00,WeatherDisplay:10.37,2013-07-08 01:36:00,
2013-07-07 21:41:00,78.8,74.3,30.14,South,180,5.8,5.8,86,0.00,CLR,,0.00,WeatherDisplay:10.37,2013-07-08 01:41:00,
2013-07-07 21:46:00,78.8,74.3,30.14,South,180,4.6,4.6,86,0.00,CLR,,0.00,WeatherDisplay:10.37,2013-07-08 01:46:00,
2013-07-07 21:51:00,78.8,74.3,30.14,South,180,3.5,3.5,86,0.00,CLR,,0.00,WeatherDisplay:10.37,2013-07-08 01:51:00,
2013-07-07 21:56:00,78.8,74.3,30.14,South,180,4.7,4.7,86,0.00,CLR,,0.00,WeatherDisplay:10.37,2013-07-08 01:56:00,
2013-07-07 22:01:00,78.8,74.6,30.14,South,180,3.5,3.5,87,0.00,CLR,,0.00,WeatherDisplay:10.37,2013-07-08 02:01:00,
2013-07-07 22:06:00,78.8,74.3,30.14,SSE,158,3.5,3.5,86,0.00,CLR,,0.00,WeatherDisplay:10.37,2013-07-08 02:06:00,
2013-07-07 22:11:00,78.6,73.4,30.14,SSE,158,4.6,4.6,84,0.00,CLR,,0.00,WeatherDisplay:10.37,2013-07-08 02:11:00,
2013-07-07 22:16:00,78.6,73.4,30.14,SSE,158,5.8,5.8,84,0.00,CLR,,0.00,WeatherDisplay:10.37,2013-07-08 02:16:00,
2013-07-07 22:21:00,78.4,72.8,30.14,SSE,158,3.5,0.0,83,0.00,CLR,,0.00,WeatherDisplay:10.37,2013-07-08 02:21:00,
2013-07-07 22:26:00,78.4,72.8,30.16,SSE,158,4.6,4.6,83,0.00,CLR,,0.00,WeatherDisplay:10.37,2013-07-08 02:26:00,
2013-07-07 22:31:00,78.4,73.2,30.16,SSE,158,0.0,0.0,84,0.00,CLR,,0.00,WeatherDisplay:10.37,2013-07-08 02:31:00,
2013-07-07 22:36:00,78.4,72.8,30.16,SSE,158,3.8,3.8,83,0.00,CLR,,0.00,WeatherDisplay:10.37,2013-07-08 02:36:00,
2013-07-07 22:41:00,78.4,72.8,30.16,SSE,158,4.6,4.6,83,0.00,CLR,,0.00,WeatherDisplay:10.37,2013-07-08 02:41:00,
2013-07-07 22:46:00,78.4,73.2,30.16,SSE,158,3.5,3.5,84,0.00,CLR,,0.00,WeatherDisplay:10.37,2013-07-08 02:46:00,
2013-07-07 22:51:00,78.4,73.5,30.16,SSE,158,3.5,3.5,85,0.00,CLR,,0.00,WeatherDisplay:10.37,2013-07-08 02:51:00,
2013-07-07 22:56:00,78.4,73.9,30.16,SSE,158,4.6,4.6,86,0.00,CLR,,0.00,WeatherDisplay:10.37,2013-07-08 02:56:00,
2013-07-07 23:01:00,78.4,73.9,30.16,SSE,158,4.7,4.7,86,0.00,CLR,,0.00,WeatherDisplay:10.37,2013-07-08 03:01:00,
2013-07-07 23:06:00,78.4,73.9,30.16,SSE,158,4.6,4.6,86,0.00,CLR,,0.00,WeatherDisplay:10.37,2013-07-08 03:06:00,
2013-07-07 23:11:00,78.4,73.9,30.16,SSE,158,4.6,4.6,86,0.00,CLR,,0.00,WeatherDisplay:10.37,2013-07-08 03:11:00,
2013-07-07 23:16:00,78.4,74.2,30.16,SSE,158,3.5,3.5,87,0.00,CLR,,0.00,WeatherDisplay:10.37,2013-07-08 03:16:00,
2013-07-07 23:21:00,78.4,74.2,30.18,SSE,158,4.6,4.6,87,0.00,CLR,,0.00,WeatherDisplay:10.37,2013-07-08 03:21:00,
2013-07-07 23:26:00,78.4,74.2,30.18,SSE,158,5.8,5.8,87,0.00,CLR,,0.00,WeatherDisplay:10.37,2013-07-08 03:26:00,
2013-07-07 23:31:00,78.4,74.2,30.18,SSE,158,3.5,3.5,87,0.00,CLR,,0.00,WeatherDisplay:10.37,2013-07-08 03:31:00,
2013-07-07 23:36:00,78.4,74.2,30.18,SSE,158,4.6,4.6,87,0.00,CLR,,0.00,WeatherDisplay:10.37,2013-07-08 03:36:00,
2013-07-07 23:41:00,78.6,74.1,30.18,SSE,158,6.9,6.9,86,0.00,CLR,,0.00,WeatherDisplay:10.37,2013-07-08 03:41:00,
2013-07-07 23:46:00,78.6,74.4,30.18,SSE,158,3.8,3.8,87,0.00,CLR,,0.00,WeatherDisplay:10.37,2013-07-08 03:46:00,
2013-07-07 23:51:00,78.6,74.7,30.18,SSE,158,4.6,4.6,88,0.00,CLR,,0.00,WeatherDisplay:10.37,2013-07-08 03:51:00,
2013-07-07 23:56:00,78.6,74.4,30.18,SSE,158,4.6,4.6,87,0.00,CLR,,0.00,WeatherDisplay:10.37,2013-07-08 03:56:00,